Regional Weather Roundup
Issued by NWS Charleston, SC

Current Version | Previous Version | Text Only | Print | Product List | Glossary Off
Versions: 1 2 3 4 5 6 7 8 9 10 11 12 13 14 15 16 17 18 19 20 21 22 23 24 25 26 27 28 29 30 31 32 33 34 35 36 37 38 39 40 41 42 43 44 45 46 47 48 49 50

000
ASUS42 KCHS 072012
RWRCHS

REGIONAL WEATHER ROUNDUP
NATIONAL WEATHER SERVICE CHARLESTON SC
400 PM EDT TUE JUL 07 2015

NOTE: "FAIR" INDICATES FEW OR NO CLOUDS BELOW 12,000 FEET WITH NO
SIGNIFICANT WEATHER AND/OR OBSTRUCTIONS TO VISIBILITY.

NOT ALL STATIONS ARE QUALITY CONTROLLED BY THE NATIONAL
WEATHER SERVICE. USE DATA WITH CAUTION...ESPECIALLY
DEWPOINT OBSERVATIONS.

SCZ027-030-031-034>040-042>050-072100-
...SOUTHEAST SOUTH CAROLINA...

CITY           SKY/WX    TMP DP  RH WIND       PRES   REMARKS
N CHARLESTON   PTSUNNY   78  73  84 S10       30.13F
WATERFRONT PAR   N/A     84  70  62 CALM      30.12R
MOUNT PLEASANT FAIR      86  72  62 S9        30.13F HX  92
JOHNS ISLAND   DRIZZLE   79  73  83 SW7       30.13F
PINOPOLIS      NOT AVBL
MONCKS CORNER  FAIR      81  72  74 SW6       30.13R THUNDER
SUMMERVILLE    NOT AVBL
BEAUFORT MCAS  CLOUDY    79  74  84 SE5       30.13F
BEAUFORT ARPT  FAIR      75  73  94 S3        30.14S
HILTON HEAD IS RAIN      77  70  78 S9        30.16S
WALTERBORO     CLOUDY    82  72  69 S10       30.12F
ALLENDALE      FAIR      91  70  49 SW7       30.09F HX  97

...SOUTHERN MIDLANDS AND PEE DEE...

CITY           SKY/WX    TMP DP  RH WIND       PRES   REMARKS
GEORGETOWN     NOT AVBL
KINGSTREE      NOT AVBL
ORANGEBURG     PTSUNNY   88  70  55 S3        30.10S HX  93
BARNWELL       FAIR      93  72  49 W6        30.10S HX 100
AIKEN          NOT AVBL
MANNING        FAIR      84  66  54 SW5       30.10F
COLUMBIA       PTSUNNY   93  68  43 W7        30.08F HX  97
SUMTER         MOSUNNY   92  70  49 S9        30.07F HX  97
FLORENCE       MOSUNNY   91  68  46 SW7       30.08F HX  95
MYRTLE BEACH   MOSUNNY   86  75  70 S17       30.14S HX  95
N MYRTLE BEACH MOSUNNY   86  74  67 S14       30.13S HX  94

$$

GAZ063-065-086>088-099>101-113>116-118-119-134>141-150-072100-
...SOUTHEAST GEORGIA...

CITY           SKY/WX    TMP DP  RH WIND       PRES   REMARKS
SAVANNAH ARPT  TSTM      75  70  84 SE14      30.13R
HUNTER AAF     TSTM      73  72  94 N14G24    30.12R VSB 1/2
FORT STEWART   MOSUNNY   92  73  53 S5        30.08F HX 100
STATESBORO     NOT AVBL
SYLVANIA       PTCLDY    92  73  53 CALM      30.11S HX 100
CLAXTON        FAIR      90  72  55 W5        30.10S HX  96

...CSRA...CENTRAL AND FAR SOUTHEAST GEORGIA...

CITY           SKY/WX    TMP DP  RH WIND       PRES   REMARKS
THOMSON        NOT AVBL
AUGUSTA-BUSH   PTSUNNY   92  70  48 SW10      30.08F HX  97
AUGUSTA-DANIEL MOSUNNY   94  68  42 CALM      30.11F HX  98
SWAINSBORO     FAIR      93  70  46 W6        30.12F HX  99
VIDALIA        MOSUNNY   91  66  43 NW6       30.11F HX  94
EASTMAN        NOT AVBL
HAZLEHURST     FAIR      92  70  48 W6        30.10F HX  98
ALMA           SUNNY     91  70  49 N6        30.10F HX  96
WAYCROSS       NOT AVBL
JESUP          FAIR      97  72  44 W3        30.09F HX 105
BAXLEY         FAIR      91  70  49 W7        30.10F HX  97
BRUNSWICK      MOSUNNY   90  72  55 SE10      30.12S THUNDER HX  96
SAINT SIMONS   MOSUNNY   85  72  65 SE13      30.12F HX  91

$$

SCZ027-028-034-036>038-045-046-048>050-GAZ119-141-072100-
...LAKE AND SUPPLEMENTAL COASTAL OBSERVATIONS...

STATION/POSITION TIME  TEMP    WIND        PRES    WAVE   SWELL
                       AIR SEA DIR/SP/G            HT/PER HT/PER/DIR
                 (UTC) (F)     (DEG/KT/KT) (MB)    (FT/S) (FT/S/D)
UPR LAKE MARION  NOT AVBL
WINYAH BAY       NOT AVBL
LAKE MURRAY      1900   89     190/  7/ 11 1018.6F
ACE BASIN NERRS  NOT AVBL
FORT PULASKI     1900   85 83  130/  8/ 11 1020.9F
SAPELO ISLAND    1900   89     150/  9     1020.0F

$$

ANZ835-935-AMZ111-154-330-350-352-354-370-450-454-472-072100-
...C-MAN AND BUOY OBSERVATIONS...

STATION/POSITION TIME  TEMP    WIND        PRES    WAVE   SWELL
                       AIR SEA DIR/SP/G            HT/PER HT/PER/DIR
                 (UTC) (F)     (DEG/KT/KT) (MB)    (FT/S) (FT/S/D)
BUOY 41004       1950   82 83  190/ 12/ 14 1020.2F   3/ 9   3/ 9
BUOY 41008       1950   78 80  160/  8/ 10 1020.3F   2/ 9   2/120/ 9
FOLLY BEACH CMAN 1900   82     190/ 12/ 14 1020.8S
CAPERS NEARSHORE 1908   82     210/ 14/ 16 1020.7F
FRIPP NEARSHORE  1900   82     200/ 12/ 14 1020.3S


STATION/POSITION TIME  TEMP    WIND        PRES    WAVE   SWELL
                       AIR SEA DIR/SP/G            HT/PER HT/PER/DIR
                 (UTC) (F)     (DEG/KT/KT) (MB)    (FT/S) (FT/S/D)
5E ST. MARYS GA  1921      80                N/A     2/ 8
FRYING PAN BUOY  1950   83 81  200/ 10/ 12 1021.0F   3/ 8   2/120/ 8
BUOY 41025       1950   81 83  210/ 17/ 19 1019.9F   3/ 8   2/140/ 8
CAPE LOOKOUT NC  1900   82     190/ 12/ 14 1020.1F
BUOY 41002       1950   83 81  210/ 12/ 14 1022.6F   4/ 9   3/130/ 9
BUOY 41010       1920   83 85  130/  4/  8 1021.8F
ST AUGUSTINE FL  2000   78 74  140/  8/  9 1020.9F


$$



USA.gov is the U.S. government's official web portal to all federal, state and local government web resources and services.